Regional Weather Roundup
Issued by NWS

Home | Current Version | Previous Version | Graphics & Text | Print | Product List | Glossary On
Versions: 1 2 3 4 5 6 7 8 9 10 11 12 13 14 15 16 17 18 19 20 21 22 23 24 25 26 27 28 29 30 31 32 33 34 35 36 37 38 39 40 41 42 43 44 45 46 47 48
000
ASUS45 KSLC 270610
RWRUT

UTAH REGIONAL WEATHER ROUNDUP
NATIONAL WEATHER SERVICE SALT LAKE CITY UT
1100 PM MST MON JAN 26 2015

UTZ001>011-023>025-270700-

NORTHERN UTAH

CITY           SKY/WX    TMP DP  RH WIND       PRES   REMARKS
BRIGHAM CITY   PTCLDY    35  32  88 NW6       30.21F WCI  30
HILL AFB       PTCLDY    40  28  63 SE8       30.20F WCI  35
LOGAN          CLEAR     29  27  92 CALM      30.23R
OGDEN          PTCLDY    36  32  85 S7        30.19F WCI  30
PROVO AIRPORT  PTCLDY    30  27  86 CALM      30.22S
SALT LAKE CITY PTCLDY    35  31  85 SE5       30.20F WCI  31
VERNAL         PTCLDY    27  21  78 W5        30.35R WCI  22
WENDOVER       MOCLDY    30  25  80 CALM      30.21S
HEBER CITY     CLEAR     28  27  93 CALM      30.26S
WEST JORDAN    CLEAR     34  32  93 CALM      30.21F

$$

UTZ012>022-026-027-270700-

SOUTHERN/CENTRAL UTAH

CITY           SKY/WX    TMP DP  RH WIND       PRES   REMARKS
BLANDING       MOCLDY    40  25  54 NE8       30.40R WCI  35
BRYCE CANYON   PTCLDY    24  21  88 CALM      30.33R
CEDAR CITY     MOCLDY    34  28  79 CALM      30.20F
DELTA          CLEAR     33  31  95 S8        30.21S WCI  26
MILFORD        CLOUDY    36  30  79 CALM      30.20S
MOAB/CYNLANDS  CLEAR     33  27  78 CALM      30.28R
PRICE          PTCLDY    32  23  69 NE6       30.29S WCI  26
ST GEORGE      MOCLDY    52  27  37 CALM      30.17R
KANAB          MOCLDY    46  25  42 NW13      30.26S

$$

REGIONAL REPORTS     COLORADO/ARIZONA

CITY           SKY/WX    TMP DP  RH WIND       PRES   REMARKS
CRAIG, CO      PTCLDY    18  15  88 CALM      30.33S
GRAND JUNCTION PTCLDY    32  25  75 E7        30.32R WCI  26
RIFLE          PTCLDY    31  25  78 E3        30.35R
MONTROSE       CLEAR     30  22  72 S6        30.36R WCI  24
CORTEZ         CLEAR     31  24  75 NE3       30.35R
PAGE, AZ       NOT AVBL
GRAND CANYON   CLOUDY    45  24  43 VRB5      30.28R
KINGMAN        LGT RAIN  48  42  80 S8        30.18R
FLAGSTAFF      CLOUDY    38  27  64 CALM      30.31R

$$

REGIONAL REPORTS    NEVADA/IDAHO/WYOMING

CITY           SKY/WX    TMP DP  RH WIND       PRES   REMARKS
LAS VEGAS, NV  LGT RAIN  56  47  71 S14       30.14R
ELY            PTCLDY    30  23  75 S9        30.21S WCI  22
ELKO           CLOUDY    36  28  73 E9        30.13F WCI  29
POCATELLO, ID  CLEAR     29  29 100 CALM      30.19F
BURLEY         CLEAR     35  31  85 E8        30.13S WCI  29
EVANSTON, WY   PTCLDY    39  29  67 SE3       30.29R
ROCK SPRINGS   PTCLDY    37  25  61 CALM      30.28S
KEMMERER       CLEAR     32  23  69 N8        30.30S WCI  25

$$


USA.gov is the U.S. government's official web portal to all federal, state and local government web resources and services.